Time,TemperatureF,DewpointF,PressureIn,WindDirection,WindDirectionDegrees,WindSpeedMPH,WindSpeedGustMPH,Humidity,HourlyPrecipIn,Conditions,Clouds,dailyrainin,SolarRadiationWatts/m^2,SoftwareType,DateUTC
2013-01-16 00:00:00,31.2,28.1,30.34,ESE,106,0.0,0.0,88,0.00,,,0.00,0,WeatherCatV1.12B45,2013-01-16 08:00:00,
2013-01-16 00:05:00,31.2,28.1,30.34,ESE,109,0.0,0.0,88,0.00,,,0.00,0,WeatherCatV1.12B45,2013-01-16 08:05:00,
2013-01-16 00:10:00,31.2,28.1,30.34,ESE,106,0.0,0.0,88,0.00,,,0.00,0,WeatherCatV1.12B45,2013-01-16 08:10:00,
2013-01-16 00:15:00,31.2,28.1,30.35,ESE,103,0.0,0.0,88,0.00,,,0.00,0,WeatherCatV1.12B45,2013-01-16 08:15:00,
2013-01-16 00:20:00,31.0,27.9,30.35,ESE,106,0.0,0.0,88,0.00,,,0.00,0,WeatherCatV1.12B45,2013-01-16 08:20:00,
2013-01-16 00:25:00,31.0,27.9,30.35,East,100,0.0,0.0,88,0.00,,,0.00,0,WeatherCatV1.12B45,2013-01-16 08:25:00,
2013-01-16 00:30:00,31.0,27.9,30.35,ESE,103,0.0,0.0,88,0.00,,,0.00,0,WeatherCatV1.12B45,2013-01-16 08:30:00,
2013-01-16 00:35:00,30.9,27.8,30.35,ESE,106,0.0,0.0,88,0.00,,,0.00,0,WeatherCatV1.12B45,2013-01-16 08:35:00,
2013-01-16 00:40:00,30.9,27.8,30.35,ESE,103,0.0,0.0,88,0.00,,,0.00,0,WeatherCatV1.12B45,2013-01-16 08:40:00,
2013-01-16 00:45:00,30.7,27.6,30.35,ESE,103,0.0,0.0,88,0.00,,,0.00,0,WeatherCatV1.12B45,2013-01-16 08:45:00,
2013-01-16 00:50:00,30.7,27.6,30.35,East,100,0.0,0.0,88,0.00,,,0.00,0,WeatherCatV1.12B45,2013-01-16 08:50:00,
2013-01-16 00:55:00,30.6,27.5,30.35,ESE,103,0.0,0.0,88,0.00,,,0.00,0,WeatherCatV1.12B45,2013-01-16 08:55:00,
2013-01-16 01:00:00,30.6,27.5,30.35,East,100,0.0,0.0,88,0.00,,,0.00,0,WeatherCatV1.12B45,2013-01-16 09:00:00,
2013-01-16 01:05:00,30.6,27.5,30.35,East,100,0.0,0.0,88,0.00,,,0.00,0,WeatherCatV1.12B45,2013-01-16 09:05:00,
2013-01-16 01:10:00,30.6,27.8,30.35,East,99,0.0,0.0,89,0.00,,,0.00,0,WeatherCatV1.12B45,2013-01-16 09:10:00,
2013-01-16 01:15:00,30.6,27.8,30.35,East,100,0.0,0.0,89,0.00,,,0.00,0,WeatherCatV1.12B45,2013-01-16 09:15:00,
2013-01-16 01:20:00,30.6,27.8,30.35,East,99,0.0,0.0,89,0.00,,,0.00,0,WeatherCatV1.12B45,2013-01-16 09:20:00,
2013-01-16 01:25:00,30.7,27.9,30.35,East,100,0.0,0.0,89,0.00,,,0.00,0,WeatherCatV1.12B45,2013-01-16 09:25:00,
2013-01-16 01:30:00,31.0,28.1,30.35,East,100,0.0,0.0,89,0.00,,,0.00,0,WeatherCatV1.12B45,2013-01-16 09:30:00,
2013-01-16 01:35:00,31.2,28.3,30.35,East,100,0.0,0.0,89,0.00,,,0.00,0,WeatherCatV1.12B45,2013-01-16 09:35:00,
2013-01-16 01:40:00,31.2,28.3,30.35,East,100,0.0,0.0,89,0.00,,,0.00,0,WeatherCatV1.12B45,2013-01-16 09:40:00,
2013-01-16 01:45:00,31.2,28.3,30.35,ESE,102,0.0,0.0,89,0.00,,,0.00,0,WeatherCatV1.12B45,2013-01-16 09:45:00,
2013-01-16 01:50:00,31.2,28.3,30.35,East,100,0.0,0.0,89,0.00,,,0.00,0,WeatherCatV1.12B45,2013-01-16 09:50:00,
2013-01-16 01:55:00,31.3,28.4,30.35,East,100,0.0,1.0,89,0.00,,,0.00,0,WeatherCatV1.12B45,2013-01-16 09:55:00,
2013-01-16 02:00:00,31.6,28.7,30.35,East,100,0.0,0.0,89,0.00,,,0.00,0,WeatherCatV1.12B45,2013-01-16 10:00:00,
2013-01-16 02:05:00,31.8,28.9,30.35,East,100,0.0,0.0,89,0.00,,,0.00,0,WeatherCatV1.12B45,2013-01-16 10:05:00,
2013-01-16 02:10:00,32.1,29.2,30.35,East,100,0.0,0.0,89,0.00,,,0.00,0,WeatherCatV1.12B45,2013-01-16 10:10:00,
2013-01-16 02:15:00,32.1,29.0,30.35,East,99,0.0,0.0,88,0.00,,,0.00,0,WeatherCatV1.12B45,2013-01-16 10:15:00,
2013-01-16 02:20:00,32.2,29.1,30.35,East,96,0.0,1.0,88,0.00,,,0.00,0,WeatherCatV1.12B45,2013-01-16 10:20:00,
2013-01-16 02:25:00,32.7,29.5,30.35,ESE,103,0.0,0.0,88,0.00,,,0.00,0,WeatherCatV1.12B45,2013-01-16 10:25:00,
2013-01-16 02:30:00,33.2,30.0,30.35,ESE,103,0.0,1.0,88,0.00,,,0.00,0,WeatherCatV1.12B45,2013-01-16 10:30:00,
2013-01-16 02:35:00,33.8,30.6,30.35,ESE,109,0.0,0.0,88,0.00,,,0.00,0,WeatherCatV1.12B45,2013-01-16 10:35:00,
2013-01-16 02:40:00,34.3,30.3,30.35,ESE,103,0.0,2.0,85,0.00,,,0.00,0,WeatherCatV1.12B45,2013-01-16 10:40:00,
2013-01-16 02:45:00,34.7,30.4,30.35,ESE,112,0.0,2.0,84,0.00,,,0.00,0,WeatherCatV1.12B45,2013-01-16 10:45:00,
2013-01-16 02:50:00,35.0,30.7,30.35,ESE,119,0.0,1.0,84,0.00,,,0.00,0,WeatherCatV1.12B45,2013-01-16 10:50:00,
2013-01-16 02:55:00,35.3,30.4,30.35,ESE,120,0.0,0.0,82,0.00,,,0.00,0,WeatherCatV1.12B45,2013-01-16 10:55:00,
2013-01-16 03:00:00,35.8,30.6,30.34,SE,124,0.0,0.0,81,0.00,,,0.00,0,WeatherCatV1.12B45,2013-01-16 11:00:00,
2013-01-16 03:05:00,35.6,30.0,30.34,ESE,123,0.0,0.0,80,0.00,,,0.00,0,WeatherCatV1.12B45,2013-01-16 11:05:00,
2013-01-16 03:10:00,35.6,30.0,30.34,SE,126,0.0,0.0,80,0.00,,,0.00,0,WeatherCatV1.12B45,2013-01-16 11:10:00,
2013-01-16 03:15:00,35.6,29.7,30.34,SE,127,0.0,1.0,79,0.00,,,0.00,0,WeatherCatV1.12B45,2013-01-16 11:15:00,
2013-01-16 03:20:00,35.8,29.9,30.34,SE,127,0.0,0.0,79,0.00,,,0.00,0,WeatherCatV1.12B45,2013-01-16 11:20:00,
2013-01-16 03:25:00,35.8,29.9,30.34,SE,127,0.0,0.0,79,0.00,,,0.00,0,WeatherCatV1.12B45,2013-01-16 11:25:00,
2013-01-16 03:30:00,35.8,29.9,30.34,SE,124,0.0,1.0,79,0.00,,,0.00,0,WeatherCatV1.12B45,2013-01-16 11:30:00,
2013-01-16 03:35:00,36.0,29.8,30.34,SE,126,0.0,0.0,78,0.00,,,0.00,0,WeatherCatV1.12B45,2013-01-16 11:35:00,
2013-01-16 03:40:00,36.2,30.0,30.34,ESE,120,0.0,1.0,78,0.00,,,0.00,0,WeatherCatV1.12B45,2013-01-16 11:40:00,
2013-01-16 03:45:00,36.5,30.3,30.34,ESE,103,3.0,3.0,78,0.00,,,0.00,0,WeatherCatV1.12B45,2013-01-16 11:45:00,
2013-01-16 03:50:00,37.0,30.8,30.34,SE,134,2.0,2.0,78,0.00,,,0.00,0,WeatherCatV1.12B45,2013-01-16 11:50:00,
2013-01-16 03:55:00,38.8,32.5,30.34,SSE,160,4.0,4.0,78,0.00,,,0.00,0,WeatherCatV1.12B45,2013-01-16 11:55:00,
2013-01-16 04:05:00,39.3,30.7,30.34,SSE,154,0.0,0.0,71,0.00,,,0.00,0,WeatherCatV1.12B45,2013-01-16 12:05:00,
2013-01-16 04:10:00,39.2,30.6,30.34,ESE,120,0.0,1.0,71,0.00,,,0.00,0,WeatherCatV1.12B45,2013-01-16 12:10:00,
2013-01-16 04:15:00,39.1,30.8,30.33,SE,127,0.0,0.0,72,0.00,,,0.00,0,WeatherCatV1.12B45,2013-01-16 12:15:00,
2013-01-16 04:20:00,39.3,30.7,30.33,SE,126,0.0,0.0,71,0.00,,,0.00,0,WeatherCatV1.12B45,2013-01-16 12:20:00,
2013-01-16 04:25:00,39.3,30.7,30.33,SE,134,0.0,0.0,71,0.00,,,0.00,0,WeatherCatV1.12B45,2013-01-16 12:25:00,
2013-01-16 04:30:00,39.3,30.7,30.33,ESE,120,3.0,3.0,71,0.00,,,0.00,0,WeatherCatV1.12B45,2013-01-16 12:30:00,
2013-01-16 04:35:00,39.1,30.5,30.33,SSE,148,5.0,6.0,71,0.00,,,0.00,0,WeatherCatV1.12B45,2013-01-16 12:35:00,
2013-01-16 04:40:00,39.5,30.9,30.33,SE,140,0.0,2.0,71,0.00,,,0.00,0,WeatherCatV1.12B45,2013-01-16 12:40:00,
2013-01-16 04:45:00,39.6,30.6,30.32,SE,127,0.0,2.0,70,0.00,,,0.00,0,WeatherCatV1.12B45,2013-01-16 12:45:00,
2013-01-16 04:50:00,39.6,30.6,30.32,SSE,148,0.0,0.0,70,0.00,,,0.00,0,WeatherCatV1.12B45,2013-01-16 12:50:00,
2013-01-16 04:55:00,38.5,29.9,30.32,SSE,151,0.0,1.0,71,0.00,,,0.00,0,WeatherCatV1.12B45,2013-01-16 12:55:00,
2013-01-16 05:00:00,37.8,29.3,30.32,SSE,148,1.0,1.0,71,0.00,,,0.00,0,WeatherCatV1.12B45,2013-01-16 13:00:00,
2013-01-16 05:05:00,37.6,29.1,30.32,SE,145,0.0,0.0,71,0.00,,,0.00,0,WeatherCatV1.12B45,2013-01-16 13:05:00,
2013-01-16 05:10:00,36.9,29.7,30.32,ESE,117,2.0,2.0,75,0.00,,,0.00,0,WeatherCatV1.12B45,2013-01-16 13:10:00,
2013-01-16 05:15:00,36.8,29.6,30.31,SE,144,0.0,1.0,75,0.00,,,0.00,0,WeatherCatV1.12B45,2013-01-16 13:15:00,
2013-01-16 05:20:00,36.8,30.0,30.31,ESE,110,0.0,2.0,76,0.00,,,0.00,0,WeatherCatV1.12B45,2013-01-16 13:20:00,
2013-01-16 05:25:00,36.8,30.0,30.31,East,82,1.0,2.0,76,0.00,,,0.00,0,WeatherCatV1.12B45,2013-01-16 13:25:00,
2013-01-16 05:30:00,36.9,30.1,30.32,East,93,0.0,0.0,76,0.00,,,0.00,0,WeatherCatV1.12B45,2013-01-16 13:30:00,
2013-01-16 05:35:00,36.9,30.1,30.32,ESE,103,0.0,2.0,76,0.00,,,0.00,0,WeatherCatV1.12B45,2013-01-16 13:35:00,
2013-01-16 05:40:00,36.9,30.1,30.32,ESE,106,0.0,0.0,76,0.00,,,0.00,0,WeatherCatV1.12B45,2013-01-16 13:40:00,
2013-01-16 05:45:00,37.6,30.4,30.31,East,89,0.0,0.0,75,0.00,,,0.00,0,WeatherCatV1.12B45,2013-01-16 13:45:00,
2013-01-16 05:50:00,37.9,30.4,30.31,East,89,0.0,1.0,74,0.00,,,0.00,0,WeatherCatV1.12B45,2013-01-16 13:50:00,
2013-01-16 05:55:00,38.0,30.1,30.31,ESE,109,0.0,0.0,73,0.00,,,0.00,0,WeatherCatV1.12B45,2013-01-16 13:55:00,
2013-01-16 06:00:00,37.8,29.9,30.31,ESE,113,0.0,1.0,73,0.00,,,0.00,0,WeatherCatV1.12B45,2013-01-16 14:00:00,
2013-01-16 06:05:00,37.3,29.8,30.31,SE,131,2.0,2.0,74,0.00,,,0.00,0,WeatherCatV1.12B45,2013-01-16 14:05:00,
2013-01-16 06:10:00,37.0,29.8,30.31,SE,126,0.0,0.0,75,0.00,,,0.00,0,WeatherCatV1.12B45,2013-01-16 14:10:00,
2013-01-16 06:15:00,36.9,29.7,30.31,SE,134,0.0,1.0,75,0.00,,,0.00,0,WeatherCatV1.12B45,2013-01-16 14:15:00,
2013-01-16 06:20:00,36.8,30.0,30.31,SE,136,0.0,0.0,76,0.00,,,0.00,0,WeatherCatV1.12B45,2013-01-16 14:20:00,
2013-01-16 06:25:00,36.5,29.7,30.31,SE,133,0.0,0.0,76,0.00,,,0.00,0,WeatherCatV1.12B45,2013-01-16 14:25:00,
2013-01-16 06:30:00,36.2,29.7,30.32,SE,127,2.0,2.0,77,0.00,,,0.00,0,WeatherCatV1.12B45,2013-01-16 14:30:00,
2013-01-16 06:35:00,35.9,29.7,30.32,SE,127,0.0,2.0,78,0.00,,,0.00,0,WeatherCatV1.12B45,2013-01-16 14:35:00,
2013-01-16 06:40:00,35.8,29.6,30.32,SE,144,0.0,0.0,78,0.00,,,0.00,0,WeatherCatV1.12B45,2013-01-16 14:40:00,
2013-01-16 06:45:00,35.6,29.7,30.32,SE,138,0.0,0.0,79,0.00,,,0.00,0,WeatherCatV1.12B45,2013-01-16 14:45:00,
2013-01-16 06:50:00,35.5,29.6,30.32,SSE,148,0.0,0.0,79,0.00,,,0.00,0,WeatherCatV1.12B45,2013-01-16 14:50:00,
2013-01-16 06:55:00,35.5,30.0,30.32,SSE,147,0.0,0.0,80,0.00,,,0.00,0,WeatherCatV1.12B45,2013-01-16 14:55:00,
2013-01-16 07:00:00,35.5,30.0,30.32,SSE,148,0.0,0.0,80,0.00,,,0.00,0,WeatherCatV1.12B45,2013-01-16 15:00:00,
2013-01-16 07:05:00,35.5,30.0,30.32,SE,130,0.0,0.0,80,0.00,,,0.00,0,WeatherCatV1.12B45,2013-01-16 15:05:00,
2013-01-16 07:10:00,35.8,30.2,30.32,ESE,103,0.0,0.0,80,0.00,,,0.00,0,WeatherCatV1.12B45,2013-01-16 15:10:00,
2013-01-16 07:15:00,35.9,30.0,30.32,ESE,109,0.0,0.0,79,0.00,,,0.00,0,WeatherCatV1.12B45,2013-01-16 15:15:00,
2013-01-16 07:20:00,35.9,30.0,30.32,WNW,285,0.0,0.0,79,0.00,,,0.00,0,WeatherCatV1.12B45,2013-01-16 15:20:00,
2013-01-16 07:25:00,35.8,29.9,30.32,ESE,113,0.0,0.0,79,0.00,,,0.00,0,WeatherCatV1.12B45,2013-01-16 15:25:00,
2013-01-16 07:30:00,35.8,29.9,30.32,ESE,113,0.0,0.0,79,0.00,,,0.00,0,WeatherCatV1.12B45,2013-01-16 15:30:00,
2013-01-16 07:35:00,35.8,30.2,30.32,ESE,113,0.0,0.0,80,0.00,,,0.00,5,WeatherCatV1.12B45,2013-01-16 15:35:00,
2013-01-16 07:40:00,35.8,30.2,30.32,SSE,148,0.0,0.0,80,0.00,,,0.00,9,WeatherCatV1.12B45,2013-01-16 15:40:00,
2013-01-16 07:45:00,35.9,30.0,30.32,SE,145,0.0,1.0,79,0.00,,,0.00,12,WeatherCatV1.12B45,2013-01-16 15:45:00,
2013-01-16 07:50:00,35.9,30.0,30.32,SE,145,0.0,0.0,79,0.00,,,0.00,18,WeatherCatV1.12B45,2013-01-16 15:50:00,
2013-01-16 07:55:00,36.2,30.6,30.32,SE,131,0.0,0.0,80,0.00,,,0.00,25,WeatherCatV1.12B45,2013-01-16 15:55:00,
2013-01-16 08:00:00,36.5,30.6,30.32,SE,134,0.0,1.0,79,0.00,,,0.00,35,WeatherCatV1.12B45,2013-01-16 16:00:00,
2013-01-16 08:05:00,36.9,30.7,30.32,East,82,0.0,0.0,78,0.00,,,0.00,35,WeatherCatV1.12B45,2013-01-16 16:05:00,
2013-01-16 08:10:00,37.3,31.1,30.32,SSE,151,0.0,1.0,78,0.00,,,0.00,114,WeatherCatV1.12B45,2013-01-16 16:10:00,
2013-01-16 08:15:00,38.0,31.4,30.33,ESE,116,0.0,1.0,77,0.00,,,0.00,127,WeatherCatV1.12B45,2013-01-16 16:15:00,
2013-01-16 08:20:00,39.1,31.9,30.33,ESE,116,0.0,0.0,75,0.00,,,0.00,127,WeatherCatV1.12B45,2013-01-16 16:20:00,
2013-01-16 08:25:00,39.9,32.0,30.33,East,95,2.0,2.0,73,0.00,,,0.00,157,WeatherCatV1.12B45,2013-01-16 16:25:00,
2013-01-16 08:30:00,40.8,32.8,30.33,SE,143,1.0,1.0,73,0.00,,,0.00,157,WeatherCatV1.12B45,2013-01-16 16:30:00,
2013-01-16 08:35:00,41.2,32.2,30.33,SE,140,2.0,2.0,70,0.00,,,0.00,181,WeatherCatV1.12B45,2013-01-16 16:35:00,
2013-01-16 08:40:00,42.5,32.7,30.33,South,181,0.0,1.0,68,0.00,,,0.00,195,WeatherCatV1.12B45,2013-01-16 16:40:00,
2013-01-16 08:45:00,42.8,32.2,30.34,SE,127,0.0,0.0,66,0.00,,,0.00,195,WeatherCatV1.12B45,2013-01-16 16:45:00,
2013-01-16 08:50:00,43.3,32.0,30.34,SE,126,0.0,1.0,64,0.00,,,0.00,229,WeatherCatV1.12B45,2013-01-16 16:50:00,
2013-01-16 08:55:00,44.2,32.4,30.34,ESE,102,0.0,3.0,63,0.00,,,0.00,246,WeatherCatV1.12B45,2013-01-16 16:55:00,
2013-01-16 09:00:00,44.6,32.8,30.33,ENE,75,2.0,3.0,63,0.00,,,0.00,262,WeatherCatV1.12B45,2013-01-16 17:00:00,
2013-01-16 09:05:00,44.9,32.7,30.33,SE,141,0.0,1.0,62,0.00,,,0.00,278,WeatherCatV1.12B45,2013-01-16 17:05:00,
2013-01-16 09:10:00,45.5,32.4,30.33,SSE,162,3.0,3.0,60,0.00,,,0.00,289,WeatherCatV1.12B45,2013-01-16 17:10:00,
2013-01-16 09:15:00,45.7,32.2,30.34,SSE,157,3.0,7.0,59,0.00,,,0.00,304,WeatherCatV1.12B45,2013-01-16 17:15:00,
2013-01-16 09:20:00,45.7,31.8,30.34,SE,145,3.0,4.0,58,0.00,,,0.00,315,WeatherCatV1.12B45,2013-01-16 17:20:00,
2013-01-16 09:25:00,46.0,32.1,30.34,SE,134,0.0,4.0,58,0.00,,,0.00,322,WeatherCatV1.12B45,2013-01-16 17:25:00,
2013-01-16 09:30:00,46.2,32.2,30.34,North,0,2.0,2.0,58,0.00,,,0.00,329,WeatherCatV1.12B45,2013-01-16 17:30:00,
2013-01-16 09:35:00,46.8,32.4,30.34,SE,140,0.0,5.0,57,0.00,,,0.00,355,WeatherCatV1.12B45,2013-01-16 17:35:00,
2013-01-16 09:40:00,47.4,32.9,30.34,ESE,106,0.0,2.0,57,0.00,,,0.00,364,WeatherCatV1.12B45,2013-01-16 17:40:00,
2013-01-16 09:45:00,47.6,33.1,30.34,SE,144,2.0,4.0,57,0.00,,,0.00,375,WeatherCatV1.12B45,2013-01-16 17:45:00,
2013-01-16 09:50:00,47.9,33.8,30.34,SE,130,0.0,1.0,58,0.00,,,0.00,385,WeatherCatV1.12B45,2013-01-16 17:50:00,
2013-01-16 09:55:00,48.6,34.1,30.34,SE,145,0.0,0.0,57,0.00,,,0.00,394,WeatherCatV1.12B45,2013-01-16 17:55:00,
2013-01-16 10:00:00,49.2,34.2,30.33,SE,136,2.0,2.0,56,0.00,,,0.00,415,WeatherCatV1.12B45,2013-01-16 18:00:00,
2013-01-16 10:05:00,49.5,34.5,30.33,SSE,165,0.0,2.0,56,0.00,,,0.00,415,WeatherCatV1.12B45,2013-01-16 18:05:00,
2013-01-16 10:10:00,49.8,34.7,30.33,South,178,0.0,1.0,56,0.00,,,0.00,415,WeatherCatV1.12B45,2013-01-16 18:10:00,
2013-01-16 10:15:00,49.9,33.9,30.33,SSE,164,1.0,3.0,54,0.00,,,0.00,450,WeatherCatV1.12B45,2013-01-16 18:15:00,
2013-01-16 10:20:00,49.9,33.9,30.33,South,189,0.0,5.0,54,0.00,,,0.00,456,WeatherCatV1.12B45,2013-01-16 18:20:00,
2013-01-16 10:25:00,49.9,33.9,30.33,ESE,116,2.0,3.0,54,0.00,,,0.00,456,WeatherCatV1.12B45,2013-01-16 18:25:00,
2013-01-16 10:30:00,49.6,34.1,30.32,SSE,148,5.0,5.0,55,0.00,,,0.00,456,WeatherCatV1.12B45,2013-01-16 18:30:00,
2013-01-16 10:35:00,49.8,34.3,30.32,SE,145,1.0,5.0,55,0.00,,,0.00,486,WeatherCatV1.12B45,2013-01-16 18:35:00,
2013-01-16 10:40:00,49.9,34.4,30.32,SE,134,0.0,5.0,55,0.00,,,0.00,494,WeatherCatV1.12B45,2013-01-16 18:40:00,
2013-01-16 10:45:00,49.9,34.4,30.32,SE,130,2.0,5.0,55,0.00,,,0.00,498,WeatherCatV1.12B45,2013-01-16 18:45:00,
2013-01-16 10:50:00,50.1,34.6,30.32,North,357,0.0,3.0,55,0.00,,,0.00,498,WeatherCatV1.12B45,2013-01-16 18:50:00,
2013-01-16 10:55:00,50.5,34.9,30.32,SSE,147,2.0,5.0,55,0.00,,,0.00,498,WeatherCatV1.12B45,2013-01-16 18:55:00,
2013-01-16 11:00:00,50.8,35.2,30.31,SSE,151,1.0,1.0,55,0.00,,,0.00,498,WeatherCatV1.12B45,2013-01-16 19:00:00,
2013-01-16 11:05:00,51.3,35.7,30.31,SSE,162,2.0,3.0,55,0.00,,,0.00,498,WeatherCatV1.12B45,2013-01-16 19:05:00,
2013-01-16 11:10:00,51.7,36.1,30.31,South,171,2.0,3.0,55,0.00,,,0.00,542,WeatherCatV1.12B45,2013-01-16 19:10:00,
2013-01-16 11:15:00,51.9,35.3,30.30,SSE,158,2.0,6.0,53,0.00,,,0.00,551,WeatherCatV1.12B45,2013-01-16 19:15:00,
2013-01-16 11:20:00,52.2,35.6,30.30,SSE,147,2.0,2.0,53,0.00,,,0.00,551,WeatherCatV1.12B45,2013-01-16 19:20:00,
2013-01-16 11:25:00,52.5,35.4,30.30,SSW,196,1.0,3.0,52,0.00,,,0.00,560,WeatherCatV1.12B45,2013-01-16 19:25:00,
2013-01-16 11:30:00,52.9,35.8,30.30,SSE,157,7.0,7.0,52,0.00,,,0.00,561,WeatherCatV1.12B45,2013-01-16 19:30:00,
2013-01-16 11:35:00,53.2,35.5,30.30,ESE,123,1.0,1.0,51,0.00,,,0.00,561,WeatherCatV1.12B45,2013-01-16 19:35:00,
2013-01-16 11:40:00,53.8,36.1,30.30,SE,140,0.0,1.0,51,0.00,,,0.00,561,WeatherCatV1.12B45,2013-01-16 19:40:00,
2013-01-16 11:45:00,54.4,35.6,30.29,North,354,7.0,7.0,49,0.00,,,0.00,575,WeatherCatV1.12B45,2013-01-16 19:45:00,
2013-01-16 11:50:00,54.5,35.2,30.29,SE,144,2.0,5.0,48,0.00,,,0.00,577,WeatherCatV1.12B45,2013-01-16 19:50:00,
2013-01-16 11:55:00,54.5,35.2,30.29,SE,134,1.0,5.0,48,0.00,,,0.00,577,WeatherCatV1.12B45,2013-01-16 19:55:00,
2013-01-16 12:00:00,54.8,35.0,30.28,North,353,6.0,6.0,47,0.00,,,0.00,577,WeatherCatV1.12B45,2013-01-16 20:00:00,
2013-01-16 12:05:00,55.0,34.6,30.28,SE,145,6.0,7.0,46,0.00,,,0.00,586,WeatherCatV1.12B45,2013-01-16 20:05:00,
2013-01-16 12:10:00,55.3,34.9,30.28,NNW,344,1.0,5.0,46,0.00,,,0.00,588,WeatherCatV1.12B45,2013-01-16 20:10:00,
2013-01-16 12:15:00,55.7,33.6,30.27,North,353,5.0,5.0,43,0.00,,,0.00,589,WeatherCatV1.12B45,2013-01-16 20:15:00,
2013-01-16 12:20:00,56.2,35.1,30.27,SSE,157,3.0,6.0,45,0.00,,,0.00,589,WeatherCatV1.12B45,2013-01-16 20:20:00,
2013-01-16 12:25:00,56.3,34.1,30.27,South,172,1.0,6.0,43,0.00,,,0.00,588,WeatherCatV1.12B45,2013-01-16 20:25:00,
2013-01-16 12:30:00,56.3,34.1,30.26,SSE,155,1.0,5.0,43,0.00,,,0.00,588,WeatherCatV1.12B45,2013-01-16 20:30:00,
2013-01-16 12:35:00,56.5,33.7,30.26,North,349,1.0,5.0,42,0.00,,,0.00,588,WeatherCatV1.12B45,2013-01-16 20:35:00,
2013-01-16 12:40:00,56.2,33.4,30.26,ESE,120,4.0,5.0,42,0.00,,,0.00,588,WeatherCatV1.12B45,2013-01-16 20:40:00,
2013-01-16 12:45:00,56.0,33.2,30.25,SSE,160,2.0,6.0,42,0.00,,,0.00,582,WeatherCatV1.12B45,2013-01-16 20:45:00,
2013-01-16 12:50:00,55.9,33.1,30.25,South,184,0.0,7.0,42,0.00,,,0.00,582,WeatherCatV1.12B45,2013-01-16 20:50:00,
2013-01-16 12:55:00,55.9,33.1,30.25,SSE,150,2.0,2.0,42,0.00,,,0.00,577,WeatherCatV1.12B45,2013-01-16 20:55:00,
2013-01-16 13:00:00,55.6,33.5,30.24,SSE,158,6.0,6.0,43,0.00,,,0.00,575,WeatherCatV1.12B45,2013-01-16 21:00:00,
2013-01-16 13:05:00,55.6,33.5,30.24,South,176,0.0,7.0,43,0.00,,,0.00,568,WeatherCatV1.12B45,2013-01-16 21:05:00,
2013-01-16 13:10:00,55.6,33.5,30.24,SE,144,7.0,7.0,43,0.00,,,0.00,568,WeatherCatV1.12B45,2013-01-16 21:10:00,
2013-01-16 13:15:00,55.6,33.5,30.24,SSE,160,1.0,6.0,43,0.00,,,0.00,568,WeatherCatV1.12B45,2013-01-16 21:15:00,
2013-01-16 13:20:00,56.0,33.2,30.24,North,357,1.0,1.0,42,0.00,,,0.00,568,WeatherCatV1.12B45,2013-01-16 21:20:00,
2013-01-16 13:25:00,56.0,33.2,30.24,North,357,1.0,1.0,42,0.00,,,0.00,568,WeatherCatV1.12B45,2013-01-16 21:25:00,
2013-01-16 13:30:00,56.2,33.4,30.23,SSE,160,6.0,6.0,42,0.00,,,0.00,568,WeatherCatV1.12B45,2013-01-16 21:30:00,
2013-01-16 13:35:00,55.9,33.1,30.23,ESE,109,5.0,7.0,42,0.00,,,0.00,568,WeatherCatV1.12B45,2013-01-16 21:35:00,
2013-01-16 13:40:00,56.0,32.0,30.23,SE,141,5.0,8.0,40,0.00,,,0.00,568,WeatherCatV1.12B45,2013-01-16 21:40:00,
2013-01-16 13:45:00,56.0,33.2,30.23,ESE,119,1.0,7.0,42,0.00,,,0.00,526,WeatherCatV1.12B45,2013-01-16 21:45:00,
2013-01-16 13:50:00,56.3,33.5,30.23,North,349,5.0,5.0,42,0.00,,,0.00,526,WeatherCatV1.12B45,2013-01-16 21:50:00,
2013-01-16 13:55:00,56.5,32.5,30.23,South,171,2.0,10.0,40,0.00,,,0.00,526,WeatherCatV1.12B45,2013-01-16 21:55:00,
2013-01-16 14:00:00,56.3,32.9,30.22,SE,124,2.0,7.0,41,0.00,,,0.00,500,WeatherCatV1.12B45,2013-01-16 22:00:00,
2013-01-16 14:05:00,56.3,32.9,30.22,SE,127,4.0,7.0,41,0.00,,,0.00,491,WeatherCatV1.12B45,2013-01-16 22:05:00,
2013-01-16 14:10:00,56.5,33.1,30.22,ESE,113,0.0,3.0,41,0.00,,,0.00,482,WeatherCatV1.12B45,2013-01-16 22:10:00,
2013-01-16 14:15:00,56.5,32.5,30.22,SSE,155,6.0,7.0,40,0.00,,,0.00,477,WeatherCatV1.12B45,2013-01-16 22:15:00,
2013-01-16 14:20:00,56.5,32.5,30.22,SE,127,1.0,6.0,40,0.00,,,0.00,465,WeatherCatV1.12B45,2013-01-16 22:20:00,
2013-01-16 14:25:00,56.5,32.5,30.22,SE,138,3.0,4.0,40,0.00,,,0.00,450,WeatherCatV1.12B45,2013-01-16 22:25:00,
2013-01-16 14:30:00,56.5,32.5,30.22,SSE,151,4.0,4.0,40,0.00,,,0.00,443,WeatherCatV1.12B45,2013-01-16 22:30:00,
2013-01-16 14:35:00,56.7,32.0,30.22,SSE,151,3.0,6.0,39,0.00,,,0.00,429,WeatherCatV1.12B45,2013-01-16 22:35:00,
2013-01-16 14:40:00,56.9,31.6,30.22,SE,137,3.0,3.0,38,0.00,,,0.00,415,WeatherCatV1.12B45,2013-01-16 22:40:00,
2013-01-16 14:45:00,57.0,32.3,30.22,SE,145,2.0,2.0,39,0.00,,,0.00,415,WeatherCatV1.12B45,2013-01-16 22:45:00,
2013-01-16 14:50:00,57.3,31.9,30.22,SE,131,1.0,5.0,38,0.00,,,0.00,398,WeatherCatV1.12B45,2013-01-16 22:50:00,
2013-01-16 14:55:00,57.2,31.8,30.22,North,0,3.0,3.0,38,0.00,,,0.00,398,WeatherCatV1.12B45,2013-01-16 22:55:00,
2013-01-16 15:00:00,57.0,31.6,30.22,SSE,154,2.0,7.0,38,0.00,,,0.00,368,WeatherCatV1.12B45,2013-01-16 23:00:00,
2013-01-16 15:05:00,56.9,30.9,30.22,North,0,5.0,5.0,37,0.00,,,0.00,368,WeatherCatV1.12B45,2013-01-16 23:05:00,
2013-01-16 15:10:00,56.6,30.6,30.22,SE,130,1.0,4.0,37,0.00,,,0.00,343,WeatherCatV1.12B45,2013-01-16 23:10:00,
2013-01-16 15:15:00,56.7,30.7,30.22,SE,140,2.0,3.0,37,0.00,,,0.00,331,WeatherCatV1.12B45,2013-01-16 23:15:00,
2013-01-16 15:20:00,56.9,30.9,30.22,ESE,109,1.0,3.0,37,0.00,,,0.00,320,WeatherCatV1.12B45,2013-01-16 23:20:00,
2013-01-16 15:25:00,56.9,30.9,30.22,SE,141,5.0,5.0,37,0.00,,,0.00,306,WeatherCatV1.12B45,2013-01-16 23:25:00,
2013-01-16 15:30:00,56.7,30.7,30.22,SE,144,5.0,7.0,37,0.00,,,0.00,290,WeatherCatV1.12B45,2013-01-16 23:30:00,
2013-01-16 15:35:00,56.6,29.3,30.22,North,0,7.0,7.0,35,0.00,,,0.00,273,WeatherCatV1.12B45,2013-01-16 23:35:00,
2013-01-16 15:40:00,56.5,29.9,30.22,ESE,103,2.0,3.0,36,0.00,,,0.00,262,WeatherCatV1.12B45,2013-01-16 23:40:00,
2013-01-16 15:45:00,56.3,29.7,30.22,SE,141,3.0,6.0,36,0.00,,,0.00,215,WeatherCatV1.12B45,2013-01-16 23:45:00,
2013-01-16 15:50:00,56.3,29.0,30.22,SE,133,1.0,1.0,35,0.00,,,0.00,130,WeatherCatV1.12B45,2013-01-16 23:50:00,
2013-01-16 15:55:00,56.2,28.9,30.22,SSE,160,0.0,2.0,35,0.00,,,0.00,130,WeatherCatV1.12B45,2013-01-16 23:55:00,
2013-01-16 16:00:00,56.2,29.6,30.22,SE,136,4.0,5.0,36,0.00,,,0.00,211,WeatherCatV1.12B45,2013-01-17 00:00:00,
2013-01-16 16:05:00,56.0,29.4,30.22,SE,137,5.0,5.0,36,0.00,,,0.00,183,WeatherCatV1.12B45,2013-01-17 00:05:00,
2013-01-16 16:10:00,55.7,29.2,30.22,SSE,151,3.0,5.0,36,0.00,,,0.00,183,WeatherCatV1.12B45,2013-01-17 00:10:00,
2013-01-16 16:15:00,55.6,29.7,30.21,SSE,164,0.0,3.0,37,0.00,,,0.00,33,WeatherCatV1.12B45,2013-01-17 00:15:00,
2013-01-16 16:20:00,55.4,29.6,30.21,North,357,0.0,2.0,37,0.00,,,0.00,28,WeatherCatV1.12B45,2013-01-17 00:20:00,
2013-01-16 16:25:00,55.4,30.2,30.21,SSE,157,0.0,3.0,38,0.00,,,0.00,28,WeatherCatV1.12B45,2013-01-17 00:25:00,
2013-01-16 16:30:00,55.3,30.1,30.21,South,181,0.0,1.0,38,0.00,,,0.00,26,WeatherCatV1.12B45,2013-01-17 00:30:00,
2013-01-16 16:35:00,55.1,30.6,30.21,North,0,0.0,1.0,39,0.00,,,0.00,23,WeatherCatV1.12B45,2013-01-17 00:35:00,
2013-01-16 16:40:00,55.0,30.5,30.21,North,356,0.0,1.0,39,0.00,,,0.00,19,WeatherCatV1.12B45,2013-01-17 00:40:00,
2013-01-16 16:45:00,54.7,30.2,30.21,North,356,0.0,0.0,39,0.00,,,0.00,19,WeatherCatV1.12B45,2013-01-17 00:45:00,
2013-01-16 16:50:00,54.4,30.0,30.21,North,357,1.0,1.0,39,0.00,,,0.00,19,WeatherCatV1.12B45,2013-01-17 00:50:00,
2013-01-16 16:55:00,54.4,30.0,30.21,North,353,0.0,0.0,39,0.00,,,0.00,19,WeatherCatV1.12B45,2013-01-17 00:55:00,
2013-01-16 17:00:00,53.9,30.1,30.21,North,357,0.0,0.0,40,0.00,,,0.00,19,WeatherCatV1.12B45,2013-01-17 01:00:00,
2013-01-16 17:05:00,53.5,30.4,30.21,NNW,343,0.0,0.0,41,0.00,,,0.00,7,WeatherCatV1.12B45,2013-01-17 01:05:00,
2013-01-16 17:10:00,53.3,30.2,30.21,NNW,344,0.0,0.0,41,0.00,,,0.00,7,WeatherCatV1.12B45,2013-01-17 01:10:00,
2013-01-16 17:15:00,52.8,29.8,30.21,NNW,347,0.0,0.0,41,0.00,,,0.00,0,WeatherCatV1.12B45,2013-01-17 01:15:00,
2013-01-16 17:20:00,52.3,29.9,30.21,North,353,0.0,0.0,42,0.00,,,0.00,0,WeatherCatV1.12B45,2013-01-17 01:20:00,
2013-01-16 17:25:00,51.7,29.4,30.21,NNW,344,0.0,0.0,42,0.00,,,0.00,0,WeatherCatV1.12B45,2013-01-17 01:25:00,
2013-01-16 17:30:00,51.3,30.7,30.21,NNW,344,0.0,0.0,45,0.00,,,0.00,0,WeatherCatV1.12B45,2013-01-17 01:30:00,
2013-01-16 17:35:00,51.0,29.9,30.21,East,96,0.0,1.0,44,0.00,,,0.00,0,WeatherCatV1.12B45,2013-01-17 01:35:00,
2013-01-16 17:40:00,50.5,29.4,30.21,East,96,0.0,0.0,44,0.00,,,0.00,0,WeatherCatV1.12B45,2013-01-17 01:40:00,
2013-01-16 17:45:00,50.2,29.1,30.20,East,99,0.0,0.0,44,0.00,,,0.00,0,WeatherCatV1.12B45,2013-01-17 01:45:00,
2013-01-16 17:50:00,50.1,29.6,30.20,ESE,103,0.0,0.0,45,0.00,,,0.00,0,WeatherCatV1.12B45,2013-01-17 01:50:00,
2013-01-16 17:55:00,49.6,30.2,30.20,East,92,0.0,0.0,47,0.00,,,0.00,0,WeatherCatV1.12B45,2013-01-17 01:55:00,
2013-01-16 18:00:00,49.4,30.0,30.20,SE,127,0.0,0.0,47,0.00,,,0.00,0,WeatherCatV1.12B45,2013-01-17 02:00:00,
2013-01-16 18:05:00,49.1,29.7,30.20,SE,136,0.0,0.0,47,0.00,,,0.00,0,WeatherCatV1.12B45,2013-01-17 02:05:00,
2013-01-16 18:10:00,48.8,30.0,30.20,SE,130,2.0,3.0,48,0.00,,,0.00,0,WeatherCatV1.12B45,2013-01-17 02:10:00,
2013-01-16 18:15:00,49.4,29.5,30.20,ESE,117,0.0,2.0,46,0.00,,,0.00,0,WeatherCatV1.12B45,2013-01-17 02:15:00,
2013-01-16 18:20:00,49.5,29.0,30.20,SE,127,0.0,1.0,45,0.00,,,0.00,0,WeatherCatV1.12B45,2013-01-17 02:20:00,
2013-01-16 18:25:00,49.6,29.1,30.20,SE,127,0.0,0.0,45,0.00,,,0.00,0,WeatherCatV1.12B45,2013-01-17 02:25:00,
2013-01-16 18:30:00,49.5,29.6,30.20,SE,130,1.0,1.0,46,0.00,,,0.00,0,WeatherCatV1.12B45,2013-01-17 02:30:00,
2013-01-16 18:35:00,49.5,29.6,30.20,SE,127,0.0,0.0,46,0.00,,,0.00,0,WeatherCatV1.12B45,2013-01-17 02:35:00,
2013-01-16 18:40:00,49.4,29.0,30.20,ESE,106,0.0,2.0,45,0.00,,,0.00,0,WeatherCatV1.12B45,2013-01-17 02:40:00,
2013-01-16 18:45:00,49.5,29.0,30.20,East,100,2.0,3.0,45,0.00,,,0.00,0,WeatherCatV1.12B45,2013-01-17 02:45:00,
2013-01-16 18:50:00,49.9,28.9,30.20,ESE,103,1.0,5.0,44,0.00,,,0.00,0,WeatherCatV1.12B45,2013-01-17 02:50:00,
2013-01-16 18:55:00,50.1,27.9,30.20,ESE,109,1.0,2.0,42,0.00,,,0.00,0,WeatherCatV1.12B45,2013-01-17 02:55:00,
2013-01-16 19:00:00,50.1,28.5,30.20,ESE,113,0.0,0.0,43,0.00,,,0.00,0,WeatherCatV1.12B45,2013-01-17 03:00:00,
2013-01-16 19:05:00,49.9,28.3,30.20,ESE,103,0.0,3.0,43,0.00,,,0.00,0,WeatherCatV1.12B45,2013-01-17 03:05:00,
2013-01-16 19:10:00,49.9,28.3,30.20,ESE,106,0.0,0.0,43,0.00,,,0.00,0,WeatherCatV1.12B45,2013-01-17 03:10:00,
2013-01-16 19:15:00,49.8,28.8,30.20,ESE,107,0.0,0.0,44,0.00,,,0.00,0,WeatherCatV1.12B45,2013-01-17 03:15:00,
2013-01-16 19:20:00,49.6,28.6,30.20,ESE,102,0.0,1.0,44,0.00,,,0.00,0,WeatherCatV1.12B45,2013-01-17 03:20:00,
2013-01-16 19:25:00,49.5,28.5,30.20,ESE,103,2.0,2.0,44,0.00,,,0.00,0,WeatherCatV1.12B45,2013-01-17 03:25:00,
2013-01-16 19:30:00,49.5,28.5,30.19,ESE,102,0.0,0.0,44,0.00,,,0.00,0,WeatherCatV1.12B45,2013-01-17 03:30:00,
2013-01-16 19:35:00,49.5,29.0,30.19,ESE,102,1.0,1.0,45,0.00,,,0.00,0,WeatherCatV1.12B45,2013-01-17 03:35:00,
2013-01-16 19:40:00,49.5,29.0,30.19,ESE,102,0.0,0.0,45,0.00,,,0.00,0,WeatherCatV1.12B45,2013-01-17 03:40:00,
2013-01-16 19:45:00,49.5,29.0,30.19,ESE,103,0.0,0.0,45,0.00,,,0.00,0,WeatherCatV1.12B45,2013-01-17 03:45:00,
2013-01-16 19:50:00,48.8,30.5,30.19,East,89,0.0,0.0,49,0.00,,,0.00,0,WeatherCatV1.12B45,2013-01-17 03:50:00,
2013-01-16 19:55:00,48.0,-99.9,30.19,ESE,120,0.0,0.0,-999,0.00,,,0.00,0,WeatherCatV1.12B45,2013-01-17 03:55:00,
2013-01-16 20:00:00,47.0,31.7,30.19,SE,124,0.0,0.0,55,0.00,,,0.00,0,WeatherCatV1.12B45,2013-01-17 04:00:00,
2013-01-16 20:05:00,46.2,31.4,30.19,SE,131,0.0,0.0,56,0.00,,,0.00,0,WeatherCatV1.12B45,2013-01-17 04:05:00,
2013-01-16 20:10:00,45.7,30.9,30.19,ESE,120,0.0,0.0,56,0.00,,,0.00,0,WeatherCatV1.12B45,2013-01-17 04:10:00,
2013-01-16 20:15:00,45.7,31.8,30.19,ESE,110,0.0,0.0,58,0.00,,,0.00,0,WeatherCatV1.12B45,2013-01-17 04:15:00,
2013-01-16 20:20:00,45.7,31.8,30.19,ESE,110,0.0,0.0,58,0.00,,,0.00,0,WeatherCatV1.12B45,2013-01-17 04:20:00,
2013-01-16 20:25:00,43.6,31.0,30.19,NE,34,0.0,0.0,61,0.00,,,0.00,0,WeatherCatV1.12B45,2013-01-17 04:25:00,
2013-01-16 20:30:00,43.6,31.0,30.19,NE,34,0.0,0.0,61,0.00,,,0.00,0,WeatherCatV1.12B45,2013-01-17 04:30:00,
2013-01-16 20:35:00,43.2,31.5,30.19,NE,34,0.0,0.0,63,0.00,,,0.00,0,WeatherCatV1.12B45,2013-01-17 04:35:00,
2013-01-16 20:40:00,43.2,31.5,30.19,NE,34,0.0,0.0,63,0.00,,,0.00,0,WeatherCatV1.12B45,2013-01-17 04:40:00,
2013-01-16 20:45:00,43.2,31.9,30.19,NE,34,0.0,0.0,64,0.00,,,0.00,0,WeatherCatV1.12B45,2013-01-17 04:45:00,
2013-01-16 20:50:00,41.6,30.7,30.19,NE,34,0.0,0.0,65,0.00,,,0.00,0,WeatherCatV1.12B45,2013-01-17 04:50:00,
2013-01-16 20:55:00,41.5,30.6,30.19,NE,34,0.0,0.0,65,0.00,,,0.00,0,WeatherCatV1.12B45,2013-01-17 04:55:00,
2013-01-16 21:00:00,41.1,30.2,30.19,NE,34,0.0,0.0,65,0.00,,,0.00,0,WeatherCatV1.12B45,2013-01-17 05:00:00,
2013-01-16 21:05:00,40.8,30.7,30.19,NE,34,0.0,0.0,67,0.00,,,0.00,0,WeatherCatV1.12B45,2013-01-17 05:05:00,
2013-01-16 21:10:00,40.3,30.2,30.19,NE,34,0.0,0.0,67,0.00,,,0.00,0,WeatherCatV1.12B45,2013-01-17 05:10:00,
2013-01-16 21:15:00,40.2,30.5,30.19,NE,34,0.0,0.0,68,0.00,,,0.00,0,WeatherCatV1.12B45,2013-01-17 05:15:00,
2013-01-16 21:20:00,39.9,30.6,30.19,NE,34,0.0,0.0,69,0.00,,,0.00,0,WeatherCatV1.12B45,2013-01-17 05:20:00,
2013-01-16 21:25:00,39.6,30.6,30.19,NE,34,0.0,0.0,70,0.00,,,0.00,0,WeatherCatV1.12B45,2013-01-17 05:25:00,
2013-01-16 21:30:00,39.6,30.6,30.19,NNE,30,0.0,0.0,70,0.00,,,0.00,0,WeatherCatV1.12B45,2013-01-17 05:30:00,
2013-01-16 21:35:00,39.5,30.5,30.19,NE,34,0.0,0.0,70,0.00,,,0.00,0,WeatherCatV1.12B45,2013-01-17 05:35:00,
2013-01-16 21:40:00,39.5,30.5,30.19,NE,34,0.0,0.0,70,0.00,,,0.00,0,WeatherCatV1.12B45,2013-01-17 05:40:00,
2013-01-16 21:45:00,39.6,30.6,30.18,NE,34,0.0,1.0,70,0.00,,,0.00,0,WeatherCatV1.12B45,2013-01-17 05:45:00,
2013-01-16 21:50:00,39.8,30.5,30.18,NE,34,0.0,0.0,69,0.00,,,0.00,0,WeatherCatV1.12B45,2013-01-17 05:50:00,
2013-01-16 21:55:00,39.8,30.5,30.18,NE,34,0.0,0.0,69,0.00,,,0.00,0,WeatherCatV1.12B45,2013-01-17 05:55:00,
2013-01-16 22:00:00,40.2,30.5,30.18,NE,37,0.0,0.0,68,0.00,,,0.00,0,WeatherCatV1.12B45,2013-01-17 06:00:00,
2013-01-16 22:05:00,40.3,30.6,30.18,NE,37,0.0,0.0,68,0.00,,,0.00,0,WeatherCatV1.12B45,2013-01-17 06:05:00,
2013-01-16 22:10:00,40.3,30.6,30.18,NE,37,0.0,0.0,68,0.00,,,0.00,0,WeatherCatV1.12B45,2013-01-17 06:10:00,
2013-01-16 22:15:00,40.2,30.5,30.18,NE,37,0.0,0.0,68,0.00,,,0.00,0,WeatherCatV1.12B45,2013-01-17 06:15:00,
2013-01-16 22:20:00,40.2,30.5,30.18,NE,37,0.0,0.0,68,0.00,,,0.00,0,WeatherCatV1.12B45,2013-01-17 06:20:00,
2013-01-16 22:25:00,40.6,30.5,30.18,NE,48,0.0,0.0,67,0.00,,,0.00,0,WeatherCatV1.12B45,2013-01-17 06:25:00,
2013-01-16 22:30:00,40.9,30.8,30.18,NE,51,1.0,2.0,67,0.00,,,0.00,0,WeatherCatV1.12B45,2013-01-17 06:30:00,
2013-01-16 22:35:00,41.2,30.7,30.18,NE,54,0.0,1.0,66,0.00,,,0.00,0,WeatherCatV1.12B45,2013-01-17 06:35:00,
2013-01-16 22:40:00,41.3,30.4,30.18,ENE,58,1.0,2.0,65,0.00,,,0.00,0,WeatherCatV1.12B45,2013-01-17 06:40:00,
2013-01-16 22:45:00,41.8,30.5,30.18,ENE,65,0.0,1.0,64,0.00,,,0.00,0,WeatherCatV1.12B45,2013-01-17 06:45:00,
2013-01-16 22:50:00,41.8,30.5,30.18,East,95,0.0,1.0,64,0.00,,,0.00,0,WeatherCatV1.12B45,2013-01-17 06:50:00,
2013-01-16 22:55:00,41.6,30.7,30.18,ENE,58,0.0,1.0,65,0.00,,,0.00,0,WeatherCatV1.12B45,2013-01-17 06:55:00,
2013-01-16 23:00:00,41.6,30.7,30.18,NE,55,2.0,3.0,65,0.00,,,0.00,0,WeatherCatV1.12B45,2013-01-17 07:00:00,
2013-01-16 23:05:00,42.1,30.8,30.18,NE,48,2.0,3.0,64,0.00,,,0.00,0,WeatherCatV1.12B45,2013-01-17 07:05:00,
2013-01-16 23:10:00,42.6,30.5,30.18,ESE,113,1.0,2.0,62,0.00,,,0.00,0,WeatherCatV1.12B45,2013-01-17 07:10:00,
2013-01-16 23:15:00,43.1,30.6,30.18,SE,136,0.0,1.0,61,0.00,,,0.00,0,WeatherCatV1.12B45,2013-01-17 07:15:00,
2013-01-16 23:20:00,43.5,30.5,30.18,ESE,119,2.0,2.0,60,0.00,,,0.00,0,WeatherCatV1.12B45,2013-01-17 07:20:00,
2013-01-16 23:25:00,43.9,30.1,30.18,SSE,148,3.0,3.0,58,0.00,,,0.00,0,WeatherCatV1.12B45,2013-01-17 07:25:00,
2013-01-16 23:30:00,44.3,30.5,30.17,ESE,109,0.0,0.0,58,0.00,,,0.00,0,WeatherCatV1.12B45,2013-01-17 07:30:00,
2013-01-16 23:35:00,44.5,30.2,30.17,ESE,113,0.0,1.0,57,0.00,,,0.00,0,WeatherCatV1.12B45,2013-01-17 07:35:00,
2013-01-16 23:40:00,44.8,30.1,30.17,ESE,113,0.0,2.0,56,0.00,,,0.00,0,WeatherCatV1.12B45,2013-01-17 07:40:00,
2013-01-16 23:45:00,44.9,30.2,30.18,SE,141,0.0,1.0,56,0.00,,,0.00,0,WeatherCatV1.12B45,2013-01-17 07:45:00,
2013-01-16 23:50:00,44.3,30.5,30.18,South,175,0.0,0.0,58,0.00,,,0.00,0,WeatherCatV1.12B45,2013-01-17 07:50:00,
2013-01-16 23:55:00,44.3,30.9,30.18,SSE,157,0.0,0.0,59,0.00,,,0.00,0,WeatherCatV1.12B45,2013-01-17 07:55:00,